owner,sensor,date,latitude,longitude,air_pressure(mBar),qcFlag 
TABS,ioos:station:wmo:42043:1,2006-12-01T00:00:00Z,28.9818,-94.9186,1022.0,11111222 
TABS,ioos:station:wmo:42043:1,2006-12-01T00:30:00Z,28.9818,-94.9186,1022.73,11111222 
TABS,ioos:station:wmo:42043:1,2006-12-01T01:00:00Z,28.9818,-94.9186,1023.32,11111222 
TABS,ioos:station:wmo:42043:1,2006-12-01T01:30:00Z,28.9818,-94.9186,1023.79,11111222 
TABS,ioos:station:wmo:42043:1,2006-12-01T02:00:00Z,28.9818,-94.9186,1024.31,11111222 
TABS,ioos:station:wmo:42043:1,2006-12-01T02:30:00Z,28.9818,-94.9186,1025.07,11111222 
TABS,ioos:station:wmo:42043:1,2006-12-01T03:00:00Z,28.9818,-94.9186,1025.5,11111222 
TABS,ioos:station:wmo:42043:1,2006-12-01T03:30:00Z,28.9818,-94.9186,1025.55,11111222 
TABS,ioos:station:wmo:42043:1,2006-12-01T04:00:00Z,28.9818,-94.9186,1025.84,11111222 
TABS,ioos:station:wmo:42043:1,2006-12-01T04:30:00Z,28.9818,-94.9186,1025.65,11111222 
TABS,ioos:station:wmo:42043:1,2006-12-01T05:00:00Z,28.9818,-94.9186,1025.97,11111222 
TABS,ioos:station:wmo:42043:1,2006-12-01T05:30:00Z,28.9818,-94.9186,1026.28,11111222 
TABS,ioos:station:wmo:42043:1,2006-12-01T06:00:00Z,28.9818,-94.9186,1026.01,11111222 
TABS,ioos:station:wmo:42043:1,2006-12-01T06:30:00Z,28.9818,-94.9186,1026.07,11111222 
TABS,ioos:station:wmo:42043:1,2006-12-01T07:00:00Z,28.9818,-94.9186,1026.3,11111222 
TABS,ioos:station:wmo:42043:1,2006-12-01T07:30:00Z,28.9818,-94.9186,1026.27,11111222 
TABS,ioos:station:wmo:42043:1,2006-12-01T08:00:00Z,28.9818,-94.9186,1026.38,11111222 
TABS,ioos:station:wmo:42043:1,2006-12-01T08:30:00Z,28.9818,-94.9186,1026.44,11111222 
TABS,ioos:station:wmo:42043:1,2006-12-01T09:00:00Z,28.9818,-94.9186,1026.52,11111222 
TABS,ioos:station:wmo:42043:1,2006-12-01T09:30:00Z,28.9818,-94.9186,1026.71,11111222 
TABS,ioos:station:wmo:42043:1,2006-12-01T10:00:00Z,28.9818,-94.9186,1026.65,11111222 
TABS,ioos:station:wmo:42043:1,2006-12-01T10:30:00Z,28.9818,-94.9186,1027.23,11111222 
TABS,ioos:station:wmo:42043:1,2006-12-01T11:00:00Z,28.9818,-94.9186,1027.23,11111222 
TABS,ioos:station:wmo:42043:1,2006-12-01T11:30:00Z,28.9818,-94.9186,1027.57,11111222 
TABS,ioos:station:wmo:42043:1,2006-12-01T12:00:00Z,28.9818,-94.9186,1027.63,11111222 
TABS,ioos:station:wmo:42043:1,2006-12-01T12:30:00Z,28.9818,-94.9186,1027.84,11111222 
TABS,ioos:station:wmo:42043:1,2006-12-01T13:00:00Z,28.9818,-94.9186,1028.17,11111222 
TABS,ioos:station:wmo:42043:1,2006-12-01T13:30:00Z,28.9818,-94.9186,1028.23,11111222 
TABS,ioos:station:wmo:42043:1,2006-12-01T14:00:00Z,28.9818,-94.9186,1028.22,11111222 
TABS,ioos:station:wmo:42043:1,2006-12-01T14:30:00Z,28.9818,-94.9186,1028.6,11111222 
TABS,ioos:station:wmo:42043:1,2006-12-01T15:00:00Z,28.9818,-94.9186,1028.46,11111222 
TABS,ioos:station:wmo:42043:1,2006-12-01T15:30:00Z,28.9818,-94.9186,1028.64,11111222 
TABS,ioos:station:wmo:42043:1,2006-12-01T16:00:00Z,28.9818,-94.9186,1028.43,11111222 
TABS,ioos:station:wmo:42043:1,2006-12-01T16:30:00Z,28.9818,-94.9186,1028.23,11111222 
TABS,ioos:station:wmo:42043:1,2006-12-01T17:00:00Z,28.9818,-94.9186,1028.0,11111222 
TABS,ioos:station:wmo:42043:1,2006-12-01T17:30:00Z,28.9818,-94.9186,1027.45,11111222 
TABS,ioos:station:wmo:42043:1,2006-12-01T18:00:00Z,28.9818,-94.9186,1026.73,11111222 
TABS,ioos:station:wmo:42043:1,2006-12-01T18:30:00Z,28.9818,-94.9186,1025.94,11111222 
TABS,ioos:station:wmo:42043:1,2006-12-01T19:00:00Z,28.9818,-94.9186,1025.64,11111222 
TABS,ioos:station:wmo:42043:1,2006-12-01T19:30:00Z,28.9818,-94.9186,1025.37,11111222 
TABS,ioos:station:wmo:42043:1,2006-12-01T20:00:00Z,28.9818,-94.9186,1024.96,11111222 
TABS,ioos:station:wmo:42043:1,2006-12-01T20:30:00Z,28.9818,-94.9186,1024.79,11111222 
TABS,ioos:station:wmo:42043:1,2006-12-01T21:00:00Z,28.9818,-94.9186,1024.34,11111222 
TABS,ioos:station:wmo:42043:1,2006-12-01T21:30:00Z,28.9818,-94.9186,1024.74,11111222 
TABS,ioos:station:wmo:42043:1,2006-12-01T22:00:00Z,28.9818,-94.9186,1024.68,11111222 
TABS,ioos:station:wmo:42043:1,2006-12-01T22:30:00Z,28.9818,-94.9186,1024.83,11111222 
TABS,ioos:station:wmo:42043:1,2006-12-01T23:00:00Z,28.9818,-94.9186,1024.54,11111222 
TABS,ioos:station:wmo:42043:1,2006-12-01T23:30:00Z,28.9818,-94.9186,1024.41,11111222 
TABS,ioos:station:wmo:42043:1,2006-12-02T00:00:00Z,28.9818,-94.9186,1024.76,11111222 
TABS,ioos:station:wmo:42043:1,2006-12-02T00:30:00Z,28.9818,-94.9186,1024.8,11111222 
TABS,ioos:station:wmo:42043:1,2006-12-02T01:00:00Z,28.9818,-94.9186,1024.97,11111222 
TABS,ioos:station:wmo:42043:1,2006-12-02T01:30:00Z,28.9818,-94.9186,1024.92,11111222 
TABS,ioos:station:wmo:42043:1,2006-12-02T02:00:00Z,28.9818,-94.9186,1025.27,11111222 
TABS,ioos:station:wmo:42043:1,2006-12-02T02:30:00Z,28.9818,-94.9186,1025.52,11111222 
TABS,ioos:station:wmo:42043:1,2006-12-02T03:00:00Z,28.9818,-94.9186,1025.42,11111222 
TABS,ioos:station:wmo:42043:1,2006-12-02T03:30:00Z,28.9818,-94.9186,1025.5,11111222 
TABS,ioos:station:wmo:42043:1,2006-12-02T04:00:00Z,28.9818,-94.9186,1025.39,11111222 
TABS,ioos:station:wmo:42043:1,2006-12-02T04:30:00Z,28.9818,-94.9186,1025.18,11111222 
TABS,ioos:station:wmo:42043:1,2006-12-02T05:00:00Z,28.9818,-94.9186,1025.08,11111222 
TABS,ioos:station:wmo:42043:1,2006-12-02T05:30:00Z,28.9818,-94.9186,1024.93,11111222 
TABS,ioos:station:wmo:42043:1,2006-12-02T06:00:00Z,28.9818,-94.9186,1024.54,11111222 
TABS,ioos:station:wmo:42043:1,2006-12-02T06:30:00Z,28.9818,-94.9186,1024.61,11111222 
TABS,ioos:station:wmo:42043:1,2006-12-02T07:00:00Z,28.9818,-94.9186,1024.46,11111222 
TABS,ioos:station:wmo:42043:1,2006-12-02T07:30:00Z,28.9818,-94.9186,1024.31,11111222 
TABS,ioos:station:wmo:42043:1,2006-12-02T08:00:00Z,28.9818,-94.9186,1024.89,11111222 
TABS,ioos:station:wmo:42043:1,2006-12-02T08:30:00Z,28.9818,-94.9186,1024.83,11111222 
TABS,ioos:station:wmo:42043:1,2006-12-02T09:00:00Z,28.9818,-94.9186,1024.89,11111222 
TABS,ioos:station:wmo:42043:1,2006-12-02T09:30:00Z,28.9818,-94.9186,1025.17,11111222 
TABS,ioos:station:wmo:42043:1,2006-12-02T10:00:00Z,28.9818,-94.9186,1025.02,11111222 
TABS,ioos:station:wmo:42043:1,2006-12-02T10:30:00Z,28.9818,-94.9186,1025.17,11111222 
TABS,ioos:station:wmo:42043:1,2006-12-02T11:00:00Z,28.9818,-94.9186,1025.15,11111222 
TABS,ioos:station:wmo:42043:1,2006-12-02T11:30:00Z,28.9818,-94.9186,1025.27,11111222 
TABS,ioos:station:wmo:42043:1,2006-12-02T12:00:00Z,28.9818,-94.9186,1025.21,11111222 
TABS,ioos:station:wmo:42043:1,2006-12-02T12:30:00Z,28.9818,-94.9186,1025.2,11111222 
TABS,ioos:station:wmo:42043:1,2006-12-02T13:00:00Z,28.9818,-94.9186,1025.8,11111222 
TABS,ioos:station:wmo:42043:1,2006-12-02T13:30:00Z,28.9818,-94.9186,1026.33,11111222 
TABS,ioos:station:wmo:42043:1,2006-12-02T14:00:00Z,28.9818,-94.9186,1026.44,11111222 
TABS,ioos:station:wmo:42043:1,2006-12-02T14:30:00Z,28.9818,-94.9186,1026.79,11111222 
TABS,ioos:station:wmo:42043:1,2006-12-02T15:00:00Z,28.9818,-94.9186,1027.3,11111222 
TABS,ioos:station:wmo:42043:1,2006-12-02T15:30:00Z,28.9818,-94.9186,1027.32,11111222 
TABS,ioos:station:wmo:42043:1,2006-12-02T16:00:00Z,28.9818,-94.9186,1027.68,11111222 
TABS,ioos:station:wmo:42043:1,2006-12-02T16:30:00Z,28.9818,-94.9186,1027.14,11111222 
TABS,ioos:station:wmo:42043:1,2006-12-02T17:00:00Z,28.9818,-94.9186,1027.08,11111222 
TABS,ioos:station:wmo:42043:1,2006-12-02T17:30:00Z,28.9818,-94.9186,1026.88,11111222 
TABS,ioos:station:wmo:42043:1,2006-12-02T18:00:00Z,28.9818,-94.9186,1026.48,11111222 
TABS,ioos:station:wmo:42043:1,2006-12-02T18:30:00Z,28.9818,-94.9186,1025.83,11111222 
TABS,ioos:station:wmo:42043:1,2006-12-02T19:00:00Z,28.9818,-94.9186,1025.51,11111222 
TABS,ioos:station:wmo:42043:1,2006-12-02T19:30:00Z,28.9818,-94.9186,1025.54,11111222 
TABS,ioos:station:wmo:42043:1,2006-12-02T20:00:00Z,28.9818,-94.9186,1025.34,11111222 
TABS,ioos:station:wmo:42043:1,2006-12-02T20:30:00Z,28.9818,-94.9186,1025.34,11111222 
TABS,ioos:station:wmo:42043:1,2006-12-02T21:00:00Z,28.9818,-94.9186,1025.28,11111222 
TABS,ioos:station:wmo:42043:1,2006-12-02T21:30:00Z,28.9818,-94.9186,1025.07,11111222 
TABS,ioos:station:wmo:42043:1,2006-12-02T22:00:00Z,28.9818,-94.9186,1025.15,11111222 
TABS,ioos:station:wmo:42043:1,2006-12-02T22:30:00Z,28.9818,-94.9186,1025.15,11111222 
TABS,ioos:station:wmo:42043:1,2006-12-02T23:00:00Z,28.9818,-94.9186,1025.33,11111222 
TABS,ioos:station:wmo:42043:1,2006-12-02T23:30:00Z,28.9818,-94.9186,1025.44,11111222 
TABS,ioos:station:wmo:42043:1,2006-12-03T00:00:00Z,28.9818,-94.9186,1025.87,11111222 
TABS,ioos:station:wmo:42043:1,2006-12-03T00:30:00Z,28.9818,-94.9186,1026.02,11111222 
TABS,ioos:station:wmo:42043:1,2006-12-03T01:00:00Z,28.9818,-94.9186,1026.07,11111222 
TABS,ioos:station:wmo:42043:1,2006-12-03T01:30:00Z,28.9818,-94.9186,1026.15,11111222 
TABS,ioos:station:wmo:42043:1,2006-12-03T02:00:00Z,28.9818,-94.9186,1026.64,11111222 
TABS,ioos:station:wmo:42043:1,2006-12-03T02:30:00Z,28.9818,-94.9186,1027.03,11111222 
TABS,ioos:station:wmo:42043:1,2006-12-03T03:00:00Z,28.9818,-94.9186,1027.4,11111222 
TABS,ioos:station:wmo:42043:1,2006-12-03T03:30:00Z,28.9818,-94.9186,1027.3,11111222 
TABS,ioos:station:wmo:42043:1,2006-12-03T04:00:00Z,28.9818,-94.9186,1027.49,11111222 
TABS,ioos:station:wmo:42043:1,2006-12-03T04:30:00Z,28.9818,-94.9186,1027.59,11111222 
TABS,ioos:station:wmo:42043:1,2006-12-03T05:00:00Z,28.9818,-94.9186,1027.62,11111222 
TABS,ioos:station:wmo:42043:1,2006-12-03T05:30:00Z,28.9818,-94.9186,1027.54,11111222 
TABS,ioos:station:wmo:42043:1,2006-12-03T06:00:00Z,28.9818,-94.9186,1027.24,11111222 
TABS,ioos:station:wmo:42043:1,2006-12-03T06:30:00Z,28.9818,-94.9186,1027.2,11111222 
TABS,ioos:station:wmo:42043:1,2006-12-03T07:00:00Z,28.9818,-94.9186,1027.43,11111222 
TABS,ioos:station:wmo:42043:1,2006-12-03T07:30:00Z,28.9818,-94.9186,1027.62,11111222 
TABS,ioos:station:wmo:42043:1,2006-12-03T08:00:00Z,28.9818,-94.9186,1027.83,11111222 
TABS,ioos:station:wmo:42043:1,2006-12-03T08:30:00Z,28.9818,-94.9186,1027.79,11111222 
TABS,ioos:station:wmo:42043:1,2006-12-03T09:00:00Z,28.9818,-94.9186,1027.77,11111222 
TABS,ioos:station:wmo:42043:1,2006-12-03T09:30:00Z,28.9818,-94.9186,1028.02,11111222 
TABS,ioos:station:wmo:42043:1,2006-12-03T10:00:00Z,28.9818,-94.9186,1028.12,11111222 
TABS,ioos:station:wmo:42043:1,2006-12-03T10:30:00Z,28.9818,-94.9186,1028.38,11111222 
TABS,ioos:station:wmo:42043:1,2006-12-03T11:00:00Z,28.9818,-94.9186,1028.52,11111222 
TABS,ioos:station:wmo:42043:1,2006-12-03T11:30:00Z,28.9818,-94.9186,1028.82,11111222 
TABS,ioos:station:wmo:42043:1,2006-12-03T12:00:00Z,28.9818,-94.9186,1029.26,11111222 
TABS,ioos:station:wmo:42043:1,2006-12-03T12:30:00Z,28.9818,-94.9186,1029.74,11111222 
TABS,ioos:station:wmo:42043:1,2006-12-03T13:00:00Z,28.9818,-94.9186,1030.2,11111222 
TABS,ioos:station:wmo:42043:1,2006-12-03T13:30:00Z,28.9818,-94.9186,1030.91,11111222 
TABS,ioos:station:wmo:42043:1,2006-12-03T14:00:00Z,28.9818,-94.9186,1031.25,11111222 
TABS,ioos:station:wmo:42043:1,2006-12-03T14:30:00Z,28.9818,-94.9186,1031.67,11111222 
TABS,ioos:station:wmo:42043:1,2006-12-03T15:00:00Z,28.9818,-94.9186,1031.98,11111222 
TABS,ioos:station:wmo:42043:1,2006-12-03T15:30:00Z,28.9818,-94.9186,1032.07,11111222 
TABS,ioos:station:wmo:42043:1,2006-12-03T16:00:00Z,28.9818,-94.9186,1032.36,11111222 
TABS,ioos:station:wmo:42043:1,2006-12-03T16:30:00Z,28.9818,-94.9186,1032.66,11111222 
TABS,ioos:station:wmo:42043:1,2006-12-03T17:00:00Z,28.9818,-94.9186,1032.71,11111222 
TABS,ioos:station:wmo:42043:1,2006-12-03T17:30:00Z,28.9818,-94.9186,1032.72,11111222 
TABS,ioos:station:wmo:42043:1,2006-12-03T18:00:00Z,28.9818,-94.9186,1032.38,11111222 
TABS,ioos:station:wmo:42043:1,2006-12-03T18:30:00Z,28.9818,-94.9186,1032.22,11111222 
TABS,ioos:station:wmo:42043:1,2006-12-03T19:00:00Z,28.9818,-94.9186,1031.79,11111222 
TABS,ioos:station:wmo:42043:1,2006-12-03T19:30:00Z,28.9818,-94.9186,1031.38,11111222 
TABS,ioos:station:wmo:42043:1,2006-12-03T20:00:00Z,28.9818,-94.9186,1031.37,11111222 
TABS,ioos:station:wmo:42043:1,2006-12-03T20:30:00Z,28.9818,-94.9186,1030.89,11111222 
TABS,ioos:station:wmo:42043:1,2006-12-03T21:00:00Z,28.9818,-94.9186,1031.03,11111222 
TABS,ioos:station:wmo:42043:1,2006-12-03T21:30:00Z,28.9818,-94.9186,1031.49,11111222 
TABS,ioos:station:wmo:42043:1,2006-12-03T22:00:00Z,28.9818,-94.9186,1031.86,11111222 
TABS,ioos:station:wmo:42043:1,2006-12-03T22:30:00Z,28.9818,-94.9186,1032.71,11111222 
TABS,ioos:station:wmo:42043:1,2006-12-03T23:00:00Z,28.9818,-94.9186,1032.99,11111222 
TABS,ioos:station:wmo:42043:1,2006-12-03T23:30:00Z,28.9818,-94.9186,1033.65,11111222 
TABS,ioos:station:wmo:42043:1,2006-12-04T00:00:00Z,28.9818,-94.9186,1034.25,11111222 
TABS,ioos:station:wmo:42043:1,2006-12-04T00:30:00Z,28.9818,-94.9186,1034.95,11111222 
TABS,ioos:station:wmo:42043:1,2006-12-04T01:00:00Z,28.9818,-94.9186,1035.11,11111222 
TABS,ioos:station:wmo:42043:1,2006-12-04T01:30:00Z,28.9818,-94.9186,1035.75,11111222 
TABS,ioos:station:wmo:42043:1,2006-12-04T02:00:00Z,28.9818,-94.9186,1036.0,11111222 
TABS,ioos:station:wmo:42043:1,2006-12-04T02:30:00Z,28.9818,-94.9186,1036.36,11111222 
TABS,ioos:station:wmo:42043:1,2006-12-04T03:00:00Z,28.9818,-94.9186,1036.36,11111222 
TABS,ioos:station:wmo:42043:1,2006-12-04T03:30:00Z,28.9818,-94.9186,1035.99,11111222 
TABS,ioos:station:wmo:42043:1,2006-12-04T04:00:00Z,28.9818,-94.9186,1036.25,11111222 
TABS,ioos:station:wmo:42043:1,2006-12-04T04:30:00Z,28.9818,-94.9186,1036.51,11111222 
TABS,ioos:station:wmo:42043:1,2006-12-04T05:00:00Z,28.9818,-94.9186,1036.52,11111222 
TABS,ioos:station:wmo:42043:1,2006-12-04T05:30:00Z,28.9818,-94.9186,1036.29,11111222 
TABS,ioos:station:wmo:42043:1,2006-12-04T06:00:00Z,28.9818,-94.9186,1036.12,11111222 
TABS,ioos:station:wmo:42043:1,2006-12-04T06:30:00Z,28.9818,-94.9186,1035.79,11111222 
TABS,ioos:station:wmo:42043:1,2006-12-04T07:00:00Z,28.9818,-94.9186,1036.27,11111222 
TABS,ioos:station:wmo:42043:1,2006-12-04T07:30:00Z,28.9818,-94.9186,1036.15,11111222 
TABS,ioos:station:wmo:42043:1,2006-12-04T08:00:00Z,28.9818,-94.9186,1035.91,11111222 
TABS,ioos:station:wmo:42043:1,2006-12-04T08:30:00Z,28.9818,-94.9186,1036.2,11111222 
TABS,ioos:station:wmo:42043:1,2006-12-04T09:00:00Z,28.9818,-94.9186,1035.96,11111222 
TABS,ioos:station:wmo:42043:1,2006-12-04T09:30:00Z,28.9818,-94.9186,1036.4,11111222 
TABS,ioos:station:wmo:42043:1,2006-12-04T10:00:00Z,28.9818,-94.9186,1036.51,11111222 
TABS,ioos:station:wmo:42043:1,2006-12-04T10:30:00Z,28.9818,-94.9186,1036.35,11111222 
TABS,ioos:station:wmo:42043:1,2006-12-04T11:00:00Z,28.9818,-94.9186,1036.6,11111222 
TABS,ioos:station:wmo:42043:1,2006-12-04T11:30:00Z,28.9818,-94.9186,1037.16,11111222 
TABS,ioos:station:wmo:42043:1,2006-12-04T12:00:00Z,28.9818,-94.9186,1037.21,11111222 
TABS,ioos:station:wmo:42043:1,2006-12-04T12:30:00Z,28.9818,-94.9186,1037.71,11111222 
TABS,ioos:station:wmo:42043:1,2006-12-04T13:00:00Z,28.9818,-94.9186,1038.09,11111222 
TABS,ioos:station:wmo:42043:1,2006-12-04T13:30:00Z,28.9818,-94.9186,1038.52,11111222 
TABS,ioos:station:wmo:42043:1,2006-12-04T14:00:00Z,28.9818,-94.9186,1038.41,11111222 
TABS,ioos:station:wmo:42043:1,2006-12-04T14:30:00Z,28.9818,-94.9186,1038.78,11111222 
TABS,ioos:station:wmo:42043:1,2006-12-04T15:00:00Z,28.9818,-94.9186,1039.08,11111222 
TABS,ioos:station:wmo:42043:1,2006-12-04T15:30:00Z,28.9818,-94.9186,1038.95,11111222 
TABS,ioos:station:wmo:42043:1,2006-12-04T16:00:00Z,28.9818,-94.9186,1038.78,11111222 
TABS,ioos:station:wmo:42043:1,2006-12-04T16:30:00Z,28.9818,-94.9186,1038.42,11111222 
TABS,ioos:station:wmo:42043:1,2006-12-04T17:00:00Z,28.9818,-94.9186,1038.05,11111222 
TABS,ioos:station:wmo:42043:1,2006-12-04T17:30:00Z,28.9818,-94.9186,1037.46,11111222 
TABS,ioos:station:wmo:42043:1,2006-12-04T18:00:00Z,28.9818,-94.9186,1036.88,11111222 
TABS,ioos:station:wmo:42043:1,2006-12-04T18:30:00Z,28.9818,-94.9186,1035.81,11111222 
TABS,ioos:station:wmo:42043:1,2006-12-04T19:00:00Z,28.9818,-94.9186,1035.08,11111222 
TABS,ioos:station:wmo:42043:1,2006-12-04T19:30:00Z,28.9818,-94.9186,1034.4,11111222 
TABS,ioos:station:wmo:42043:1,2006-12-04T20:00:00Z,28.9818,-94.9186,1034.03,11111222 
TABS,ioos:station:wmo:42043:1,2006-12-04T20:30:00Z,28.9818,-94.9186,1033.68,11111222 
TABS,ioos:station:wmo:42043:1,2006-12-04T21:00:00Z,28.9818,-94.9186,1033.57,11111222 
TABS,ioos:station:wmo:42043:1,2006-12-04T21:30:00Z,28.9818,-94.9186,1033.27,11111222 
TABS,ioos:station:wmo:42043:1,2006-12-04T22:00:00Z,28.9818,-94.9186,1033.22,11111222 
TABS,ioos:station:wmo:42043:1,2006-12-04T22:30:00Z,28.9818,-94.9186,1033.1,11111222 
TABS,ioos:station:wmo:42043:1,2006-12-04T23:00:00Z,28.9818,-94.9186,1033.21,11111222 
TABS,ioos:station:wmo:42043:1,2006-12-04T23:30:00Z,28.9818,-94.9186,1033.27,11111222 
TABS,ioos:station:wmo:42043:1,2006-12-05T00:00:00Z,28.9818,-94.9186,1033.15,11111222 
TABS,ioos:station:wmo:42043:1,2006-12-05T00:30:00Z,28.9818,-94.9186,1033.34,11111222 
TABS,ioos:station:wmo:42043:1,2006-12-05T01:00:00Z,28.9818,-94.9186,1033.5,11111222 
TABS,ioos:station:wmo:42043:1,2006-12-05T01:30:00Z,28.9818,-94.9186,1033.67,11111222 
TABS,ioos:station:wmo:42043:1,2006-12-05T02:00:00Z,28.9818,-94.9186,1033.8,11111222 
TABS,ioos:station:wmo:42043:1,2006-12-05T02:30:00Z,28.9818,-94.9186,1033.65,11111222 
TABS,ioos:station:wmo:42043:1,2006-12-05T03:00:00Z,28.9818,-94.9186,1033.57,11111222 
TABS,ioos:station:wmo:42043:1,2006-12-05T03:30:00Z,28.9818,-94.9186,1033.75,11111222 
TABS,ioos:station:wmo:42043:1,2006-12-05T04:00:00Z,28.9818,-94.9186,1033.84,11111222 
TABS,ioos:station:wmo:42043:1,2006-12-05T04:30:00Z,28.9818,-94.9186,1033.59,11111222 
TABS,ioos:station:wmo:42043:1,2006-12-05T05:00:00Z,28.9818,-94.9186,1033.52,11111222 
TABS,ioos:station:wmo:42043:1,2006-12-05T05:30:00Z,28.9818,-94.9186,1032.63,11111222 
TABS,ioos:station:wmo:42043:1,2006-12-05T06:00:00Z,28.9818,-94.9186,1032.63,11111222 
TABS,ioos:station:wmo:42043:1,2006-12-05T06:30:00Z,28.9818,-94.9186,1032.47,11111222 
TABS,ioos:station:wmo:42043:1,2006-12-05T07:00:00Z,28.9818,-94.9186,1032.17,11111222 
TABS,ioos:station:wmo:42043:1,2006-12-05T07:30:00Z,28.9818,-94.9186,1031.98,11111222 
TABS,ioos:station:wmo:42043:1,2006-12-05T08:00:00Z,28.9818,-94.9186,1031.92,11111222 
TABS,ioos:station:wmo:42043:1,2006-12-05T08:30:00Z,28.9818,-94.9186,1031.63,11111222 
TABS,ioos:station:wmo:42043:1,2006-12-05T09:00:00Z,28.9818,-94.9186,1031.59,11111222 
TABS,ioos:station:wmo:42043:1,2006-12-05T09:30:00Z,28.9818,-94.9186,1031.34,11111222 
TABS,ioos:station:wmo:42043:1,2006-12-05T10:00:00Z,28.9818,-94.9186,1031.36,11111222 
TABS,ioos:station:wmo:42043:1,2006-12-05T10:30:00Z,28.9818,-94.9186,1031.29,11111222 
TABS,ioos:station:wmo:42043:1,2006-12-05T11:00:00Z,28.9818,-94.9186,1031.23,11111222 
TABS,ioos:station:wmo:42043:1,2006-12-05T11:30:00Z,28.9818,-94.9186,1031.31,11111222 
TABS,ioos:station:wmo:42043:1,2006-12-05T12:00:00Z,28.9818,-94.9186,1031.43,11111222 
TABS,ioos:station:wmo:42043:1,2006-12-05T12:30:00Z,28.9818,-94.9186,1031.53,11111222 
TABS,ioos:station:wmo:42043:1,2006-12-05T13:00:00Z,28.9818,-94.9186,1031.68,11111222 
TABS,ioos:station:wmo:42043:1,2006-12-05T13:30:00Z,28.9818,-94.9186,1031.88,11111222 
TABS,ioos:station:wmo:42043:1,2006-12-05T14:00:00Z,28.9818,-94.9186,1032.01,11111222 
TABS,ioos:station:wmo:42043:1,2006-12-05T14:30:00Z,28.9818,-94.9186,1031.94,11111222 
TABS,ioos:station:wmo:42043:1,2006-12-05T15:00:00Z,28.9818,-94.9186,1032.25,11111222 
TABS,ioos:station:wmo:42043:1,2006-12-05T15:30:00Z,28.9818,-94.9186,1032.24,11111222 
TABS,ioos:station:wmo:42043:1,2006-12-05T16:00:00Z,28.9818,-94.9186,1032.45,11111222 
TABS,ioos:station:wmo:42043:1,2006-12-05T16:30:00Z,28.9818,-94.9186,1032.01,11111222 
TABS,ioos:station:wmo:42043:1,2006-12-05T17:00:00Z,28.9818,-94.9186,1031.61,11111222 
TABS,ioos:station:wmo:42043:1,2006-12-05T17:30:00Z,28.9818,-94.9186,1031.31,11111222 
TABS,ioos:station:wmo:42043:1,2006-12-05T18:00:00Z,28.9818,-94.9186,1030.8,11111222 
TABS,ioos:station:wmo:42043:1,2006-12-05T18:30:00Z,28.9818,-94.9186,1030.03,11111222 
TABS,ioos:station:wmo:42043:1,2006-12-05T19:00:00Z,28.9818,-94.9186,1029.47,11111222 
TABS,ioos:station:wmo:42043:1,2006-12-05T19:30:00Z,28.9818,-94.9186,1028.85,11111222 
TABS,ioos:station:wmo:42043:1,2006-12-05T20:00:00Z,28.9818,-94.9186,1028.06,11111222 
TABS,ioos:station:wmo:42043:1,2006-12-05T20:30:00Z,28.9818,-94.9186,1027.82,11111222 
TABS,ioos:station:wmo:42043:1,2006-12-05T21:00:00Z,28.9818,-94.9186,1027.58,11111222 
TABS,ioos:station:wmo:42043:1,2006-12-05T21:30:00Z,28.9818,-94.9186,1027.19,11111222 
TABS,ioos:station:wmo:42043:1,2006-12-05T22:00:00Z,28.9818,-94.9186,1027.01,11111222 
TABS,ioos:station:wmo:42043:1,2006-12-05T22:30:00Z,28.9818,-94.9186,1026.87,11111222 
TABS,ioos:station:wmo:42043:1,2006-12-05T23:00:00Z,28.9818,-94.9186,1026.65,11111222 
TABS,ioos:station:wmo:42043:1,2006-12-05T23:30:00Z,28.9818,-94.9186,1026.66,11111222 
TABS,ioos:station:wmo:42043:1,2006-12-06T00:00:00Z,28.9818,-94.9186,1026.72,11111222 
TABS,ioos:station:wmo:42043:1,2006-12-06T00:30:00Z,28.9818,-94.9186,1026.47,11111222 
TABS,ioos:station:wmo:42043:1,2006-12-06T01:00:00Z,28.9818,-94.9186,1026.38,11111222 
TABS,ioos:station:wmo:42043:1,2006-12-06T01:30:00Z,28.9818,-94.9186,1026.16,11111222 
TABS,ioos:station:wmo:42043:1,2006-12-06T02:00:00Z,28.9818,-94.9186,1026.14,11111222 
TABS,ioos:station:wmo:42043:1,2006-12-06T02:30:00Z,28.9818,-94.9186,1025.81,11111222 
TABS,ioos:station:wmo:42043:1,2006-12-06T03:00:00Z,28.9818,-94.9186,1025.9,11111222 
TABS,ioos:station:wmo:42043:1,2006-12-06T03:30:00Z,28.9818,-94.9186,1025.32,11111222 
TABS,ioos:station:wmo:42043:1,2006-12-06T04:00:00Z,28.9818,-94.9186,1025.09,11111222 
TABS,ioos:station:wmo:42043:1,2006-12-06T04:30:00Z,28.9818,-94.9186,1025.09,11111222 
TABS,ioos:station:wmo:42043:1,2006-12-06T05:00:00Z,28.9818,-94.9186,1024.98,11111222 
TABS,ioos:station:wmo:42043:1,2006-12-06T05:30:00Z,28.9818,-94.9186,1024.56,11111222 
TABS,ioos:station:wmo:42043:1,2006-12-06T06:00:00Z,28.9818,-94.9186,1024.27,11111222 
TABS,ioos:station:wmo:42043:1,2006-12-06T06:30:00Z,28.9818,-94.9186,1023.83,11111222 
TABS,ioos:station:wmo:42043:1,2006-12-06T07:00:00Z,28.9818,-94.9186,1023.39,11111222 
TABS,ioos:station:wmo:42043:1,2006-12-06T07:30:00Z,28.9818,-94.9186,1023.29,11111222 
TABS,ioos:station:wmo:42043:1,2006-12-06T08:00:00Z,28.9818,-94.9186,1023.23,11111222 
TABS,ioos:station:wmo:42043:1,2006-12-06T08:30:00Z,28.9818,-94.9186,1022.74,11111222 
TABS,ioos:station:wmo:42043:1,2006-12-06T09:00:00Z,28.9818,-94.9186,1022.75,11111222 
TABS,ioos:station:wmo:42043:1,2006-12-06T09:30:00Z,28.9818,-94.9186,1022.81,11111222 
TABS,ioos:station:wmo:42043:1,2006-12-06T10:00:00Z,28.9818,-94.9186,1022.54,11111222 
TABS,ioos:station:wmo:42043:1,2006-12-06T10:30:00Z,28.9818,-94.9186,1022.38,11111222 
TABS,ioos:station:wmo:42043:1,2006-12-06T11:00:00Z,28.9818,-94.9186,1022.13,11111222 
TABS,ioos:station:wmo:42043:1,2006-12-06T11:30:00Z,28.9818,-94.9186,1022.22,11111222 
TABS,ioos:station:wmo:42043:1,2006-12-06T12:00:00Z,28.9818,-94.9186,1022.3,11111222 
TABS,ioos:station:wmo:42043:1,2006-12-06T12:30:00Z,28.9818,-94.9186,1022.37,11111222 
TABS,ioos:station:wmo:42043:1,2006-12-06T13:00:00Z,28.9818,-94.9186,1022.54,11111222 
TABS,ioos:station:wmo:42043:1,2006-12-06T13:30:00Z,28.9818,-94.9186,1022.83,11111222 
TABS,ioos:station:wmo:42043:1,2006-12-06T14:00:00Z,28.9818,-94.9186,1022.94,11111222 
TABS,ioos:station:wmo:42043:1,2006-12-06T14:30:00Z,28.9818,-94.9186,1022.97,11111222 
TABS,ioos:station:wmo:42043:1,2006-12-06T15:00:00Z,28.9818,-94.9186,1023.17,11111222 
TABS,ioos:station:wmo:42043:1,2006-12-06T15:30:00Z,28.9818,-94.9186,1023.09,11111222 
TABS,ioos:station:wmo:42043:1,2006-12-06T16:00:00Z,28.9818,-94.9186,1023.2,11111222 
TABS,ioos:station:wmo:42043:1,2006-12-06T16:30:00Z,28.9818,-94.9186,1023.07,11111222 
TABS,ioos:station:wmo:42043:1,2006-12-06T17:00:00Z,28.9818,-94.9186,1022.87,11111222 
TABS,ioos:station:wmo:42043:1,2006-12-06T17:30:00Z,28.9818,-94.9186,1022.72,11111222 
TABS,ioos:station:wmo:42043:1,2006-12-06T18:00:00Z,28.9818,-94.9186,1022.42,11111222 
TABS,ioos:station:wmo:42043:1,2006-12-06T18:30:00Z,28.9818,-94.9186,1021.68,11111222 